[[{"header":{"parameterUnit":"m.s-1","parameterCategory":1,"la1":30.2991,"la2":30.254,"lo1":-89.0895,"lo2":-89.0444,"dy":0.0017,"dx":0.0017,"nx":28,"ny":28,"refTime":"2025-02-27T03:00:00:Z","depth":0,"parameterNumber":2,"parameterNumberName":"U-component_of_WINDS"},"data":[0,0,0,0,0,0,0,0,0,0,0,0,0,0,0,0,0,0,0,0,0,0,0,0,0,0,0,0,0,0,0,0,0,0,0,0,0,0,0,0,0,0,0,0,0,0,0,0,0,0,0,0,0,0,0,0,0,0,1.3266,1.3266,0,1.3275,1.3275,1.3276,1.326,1.326,1.3259,1.3259,1.327,1.3271,1.3272,0,0,0,0,0,0,0,0,0,0,0,0,0,1.3236,1.3236,1.3266,1.3266,1.3266,1.3275,1.3275,1.3276,1.326,1.326,1.3259,1.3258,1.327,1.3271,1.3272,0,0,0,0,0,0,0,0,0,0,0,0,0,1.3247,1.3236,1.3266,1.3259,1.3259,1.3275,1.3275,1.3276,1.326,1.326,1.3259,1.3258,1.3269,1.3271,1.3272,1.3295,0,0,1.3275,1.3276,0,0,0,0,0,0,0,0,1.3247,1.3248,1.326,1.326,1.3259,1.3266,1.3269,1.3282,1.3261,1.326,1.3259,1.3258,1.3269,1.327,1.3274,1.3296,1.3296,1.3276,1.3276,1.3277,1.3277,0,0,0,0,0,0,0,1.3246,1.3248,1.3269,1.326,1.326,1.3257,1.3257,1.3271,1.3269,1.326,1.3259,1.326,1.3269,1.3273,1.3274,1.3296,1.3276,1.3277,1.3277,1.3278,1.3339,1.334,0,0,0,0,0,0,1.3246,1.3247,1.3269,1.327,1.3251,1.3258,1.3259,1.3264,1.3269,1.3269,1.3261,1.3259,1.3271,1.3273,1.3275,1.3303,1.3277,1.3278,1.3279,1.3338,1.3339,1.334,0,0,0,0,0,0,1.3245,1.3248,1.3269,1.3258,1.3261,1.3259,1.3266,1.3265,1.3269,1.3269,1.3269,1.3265,1.3271,1.3273,1.329,1.3303,1.3278,1.328,1.3337,1.3338,1.3339,1.3359,0,0,0,0,0,0,1.3244,1.3248,1.3256,1.3259,1.3261,1.3284,1.3267,1.3266,1.3271,1.3269,1.3273,1.3273,1.327,1.3289,1.3291,1.3304,1.328,1.3336,1.3337,1.3339,1.3357,1.3361,1.3364,0,0,0,0,0,1.3243,1.3261,1.3256,1.3259,1.3272,1.3284,1.3286,1.3282,1.3272,1.3281,1.3281,1.3273,1.3301,1.329,1.3294,1.3307,1.3335,1.3337,1.3339,1.3356,1.336,1.3364,0,0,0,0,0,0,1.326,1.3261,1.3256,1.3275,1.328,1.3282,1.3293,1.3286,1.3294,1.3292,1.3287,1.3288,1.3307,1.3309,1.3297,1.333,1.3317,1.3319,1.3328,1.3332,1.3336,1.3335,1.3281,0,0,0,0,0,1.3266,1.3276,1.3277,1.3294,1.3296,1.3294,1.33,1.3296,1.33,1.3302,1.3304,1.3309,1.3319,1.3326,1.3335,1.3358,1.3359,1.3368,1.3372,1.3374,1.3377,1.339,1.3394,1.3347,1.3347,1.3347,0,0,1.3279,1.3281,1.3287,1.3297,1.33,1.3311,1.3296,1.3308,1.3316,1.3304,1.3321,1.3322,1.3328,1.3348,1.3357,1.335,1.339,1.3377,1.3379,1.338,1.3392,1.3397,1.3401,1.3348,1.3348,1.3348,0,0,1.3307,1.331,1.3324,1.3328,1.3332,1.3331,1.3335,1.3338,1.3338,1.3354,1.3346,1.3356,1.3373,1.3378,1.3382,1.3414,1.3407,1.3417,1.3434,1.3447,1.3451,1.3454,1.3465,1.347,1.3419,1.3419,1.3419,0,1.3322,1.3338,1.3333,1.3345,1.335,1.334,1.3355,1.3359,1.3367,1.3371,1.3363,1.3385,1.3388,1.3409,1.3417,1.3421,1.3425,1.3416,1.345,1.3454,1.3457,1.3468,1.3472,1.342,1.342,1.342,1.342,0,1.3356,1.3367,1.3379,1.3386,1.3393,1.3406,1.3404,1.3411,1.3407,1.3407,1.3424,1.3428,1.3437,1.3442,1.3439,1.3464,1.3459,1.3451,1.3437,1.3462,1.3473,1.3477,1.3422,1.3422,1.3421,1.3421,0,0,1.3395,1.34,1.3404,1.3408,1.3413,1.3421,1.3435,1.3445,1.3451,1.3457,1.3469,1.3484,1.3477,1.3482,1.3479,1.349,1.3515,1.3481,1.3481,1.3487,1.3544,1.355,1.3555,1.3511,1.3512,1.3512,1.3543,0,1.3424,1.3447,1.3443,1.3466,1.3476,1.3467,1.348,1.3484,1.3485,1.3494,1.3495,1.3506,1.3495,1.3498,1.3509,1.351,1.3527,1.3508,1.3523,1.3523,1.3521,1.356,1.3567,1.3596,1.3547,1.3548,1.3549,0,1.346,1.3467,1.3491,1.3495,1.3499,1.351,1.3519,1.3527,1.3533,1.3533,1.3539,1.3534,1.3549,1.3535,1.3556,1.3543,1.3549,1.3551,1.3552,1.3553,1.3537,1.3563,1.3605,1.3609,1.3555,1.3554,1.3554,0,1.3486,1.3502,1.3518,1.3521,1.3526,1.3534,1.3537,1.3542,1.3548,1.3556,1.356,1.357,1.3575,1.3583,1.3582,1.3571,1.3603,1.3589,1.3604,1.3604,1.3611,1.361,1.3655,1.3615,1.3615,1.3614,1.3614,0,1.3518,1.3533,1.353,1.354,1.3557,1.3553,1.357,1.3571,1.3576,1.3587,1.358,1.359,1.3587,1.3598,1.3597,1.3615,1.3617,1.3618,1.3618,1.3619,1.3619,1.3622,1.3621,1.3616,1.3615,1.3615,1.3615,0,1.355,1.3549,1.3566,1.3569,1.3571,1.3583,1.3586,1.3596,1.3596,1.361,1.3613,1.3614,1.3626,1.3625,1.3639,1.3638,1.366,1.3658,1.3658,1.3658,1.3673,1.3672,1.3721,1.3728,1.3683,1.3684,1.3684,0,1.3571,1.3582,1.3587,1.3593,1.3596,1.3607,1.3613,1.361,1.3617,1.3625,1.3634,1.3646,1.3655,1.3675,1.3677,1.3688,1.3686,1.3702,1.3687,1.3688,1.3686,1.3686,1.3687,1.3705,1.3706,1.3706,1.3706,0,1.3608,1.3606,1.3615,1.3624,1.3632,1.3639,1.3646,1.3652,1.3649,1.3657,1.367,1.3677,1.3691,1.3703,1.3714,1.3717,1.3712,1.3711,1.3715,1.3716,1.3717,1.3717,1.3667,1.371,1.371,1.3709,1.3709,1.3709,1.3635,1.3644,1.3649,1.366,1.3664,1.3671,1.368,1.3682,1.3692,1.3703,1.3701,1.3715,1.3721,1.3735,1.3739,1.3751,1.3745,1.3751,1.3752,1.3754,1.3756,1.3715,1.3753,1.3753,1.3753,1.3753,1.3753,0,1.3671,1.3674,1.3684,1.3693,1.3701,1.3695,1.3702,1.371,1.3722,1.3728,1.3738,1.3752,1.3764,1.3767,1.3779,1.3788,1.3786,1.3791,1.379,1.3791,1.376,1.3756,1.3793,1.3793,1.3793,1.3793,1.3793,1.3792,1.3691,1.3708,1.3707,1.3726,1.3729,1.3743,1.3747,1.3753,1.3758,1.3775,1.3784,1.3786,1.3792,1.3804,1.3815,1.3816,1.382,1.3827,1.3827,1.3798,1.3794,1.379,1.3785,1.3828,1.3828,1.3857,1.3857,1.3857]},{"header":{"parameterUnit":"m.s-1","parameterCategory":1,"la1":30.2991,"la2":30.254,"lo1":-89.0895,"lo2":-89.0444,"dy":0.0017,"dx":0.0017,"nx":28,"ny":28,"refTime":"2025-02-27T03:00:00:Z","depth":0,"parameterNumber":3,"parameterNumberName":"V-component_of_WINDS"},"data":[0,0,0,0,0,0,0,0,0,0,0,0,0,0,0,0,0,0,0,0,0,0,0,0,0,0,0,0,0,0,0,0,0,0,0,0,0,0,0,0,0,0,0,0,0,0,0,0,0,0,0,0,0,0,0,0,0,0,-4.2013,-4.2015,0,-4.216,-4.2161,-4.2163,-4.2186,-4.2184,-4.2183,-4.2182,-4.233,-4.2335,-4.234,0,0,0,0,0,0,0,0,0,0,0,0,0,-4.1752,-4.1757,-4.2013,-4.2015,-4.2017,-4.2159,-4.2162,-4.2164,-4.2186,-4.2184,-4.2183,-4.2181,-4.2328,-4.2334,-4.234,0,0,0,0,0,0,0,0,0,0,0,0,0,-4.1879,-4.1758,-4.2013,-4.2045,-4.2049,-4.2159,-4.2162,-4.2164,-4.2186,-4.2184,-4.2182,-4.2181,-4.2326,-4.2333,-4.2341,-4.2428,0,0,-4.2365,-4.2368,0,0,0,0,0,0,0,0,-4.1871,-4.1888,-4.2039,-4.2043,-4.2048,-4.2153,-4.2124,-4.2252,-4.2187,-4.2134,-4.2182,-4.218,-4.2272,-4.2284,-4.2316,-4.2435,-4.2441,-4.2365,-4.237,-4.2373,-4.2375,0,0,0,0,0,0,0,-4.1863,-4.1882,-4.2071,-4.2041,-4.2047,-4.2052,-4.2068,-4.2148,-4.2212,-4.2139,-4.2141,-4.2158,-4.2274,-4.2308,-4.2319,-4.2443,-4.2365,-4.2372,-4.2377,-4.238,-4.2643,-4.2645,0,0,0,0,0,0,-4.1848,-4.1874,-4.2066,-4.2075,-4.1953,-4.2059,-4.2076,-4.2121,-4.2211,-4.2223,-4.2159,-4.2158,-4.2296,-4.231,-4.2325,-4.2434,-4.2373,-4.238,-4.2385,-4.264,-4.2643,-4.2646,0,0,0,0,0,0,-4.1842,-4.1865,-4.206,-4.1976,-4.2001,-4.2065,-4.2115,-4.2125,-4.2159,-4.2227,-4.2238,-4.2182,-4.2295,-4.2314,-4.2403,-4.2439,-4.2384,-4.2391,-4.2638,-4.2641,-4.2644,-4.2651,0,0,0,0,0,0,-4.1835,-4.1863,-4.1896,-4.1976,-4.2005,-4.2136,-4.2117,-4.2129,-4.2172,-4.2173,-4.2252,-4.2263,-4.2295,-4.2391,-4.241,-4.2449,-4.2397,-4.2635,-4.2639,-4.2643,-4.2648,-4.2655,-4.266,0,0,0,0,0,-4.1825,-4.1891,-4.1898,-4.1921,-4.2049,-4.2138,-4.2155,-4.2191,-4.2175,-4.221,-4.2254,-4.226,-4.2432,-4.24,-4.2422,-4.2463,-4.2632,-4.2638,-4.2643,-4.2645,-4.2653,-4.266,0,0,0,0,0,0,-4.1813,-4.1902,-4.1911,-4.2004,-4.2064,-4.2142,-4.2186,-4.2198,-4.2262,-4.2259,-4.2301,-4.2319,-4.2406,-4.2443,-4.2406,-4.2553,-4.2531,-4.2541,-4.2525,-4.2533,-4.2539,-4.2529,-4.2403,0,0,0,0,0,-4.1821,-4.1887,-4.1961,-4.2037,-4.2066,-4.2121,-4.2161,-4.2185,-4.2247,-4.2272,-4.2323,-4.2383,-4.245,-4.2494,-4.256,-4.2654,-4.2672,-4.2693,-4.2699,-4.2704,-4.2712,-4.2766,-4.2777,-4.2663,-4.2663,-4.2663,0,0,-4.1838,-4.1896,-4.1934,-4.2036,-4.2084,-4.2152,-4.2142,-4.2213,-4.2263,-4.2282,-4.237,-4.2409,-4.2479,-4.2572,-4.2615,-4.2605,-4.2747,-4.2711,-4.2714,-4.272,-4.2773,-4.2783,-4.2793,-4.2667,-4.2666,-4.2665,0,0,-4.1905,-4.1954,-4.2024,-4.2073,-4.2148,-4.2184,-4.2201,-4.2278,-4.2305,-4.2394,-4.2411,-4.2471,-4.2586,-4.2636,-4.2676,-4.2764,-4.2773,-4.2784,-4.2816,-4.2868,-4.2877,-4.2885,-4.2918,-4.2929,-4.2792,-4.2792,-4.2792,0,-4.1917,-4.2019,-4.2058,-4.2129,-4.2174,-4.2196,-4.2267,-4.2313,-4.2405,-4.2435,-4.2424,-4.257,-4.2619,-4.2724,-4.2746,-4.2777,-4.2798,-4.2775,-4.2873,-4.2881,-4.289,-4.2921,-4.2933,-4.2793,-4.2793,-4.2793,-4.2793,0,-4.2031,-4.2102,-4.2149,-4.2239,-4.2289,-4.236,-4.2409,-4.2455,-4.2474,-4.2512,-4.2603,-4.2662,-4.2741,-4.2768,-4.2786,-4.2876,-4.2869,-4.2864,-4.2843,-4.2901,-4.2931,-4.2943,-4.2794,-4.2794,-4.2794,-4.2794,0,0,-4.2092,-4.2205,-4.2221,-4.2263,-4.2348,-4.2403,-4.2475,-4.2554,-4.2593,-4.2656,-4.2718,-4.2816,-4.2814,-4.286,-4.2884,-4.293,-4.2998,-4.2921,-4.2923,-4.2934,-4.3102,-4.3104,-4.3118,-4.3004,-4.3006,-4.3008,-4.3096,0,-4.217,-4.23,-4.2338,-4.2447,-4.2514,-4.2537,-4.26,-4.2659,-4.2697,-4.2758,-4.28,-4.2869,-4.286,-4.2888,-4.2935,-4.2979,-4.3032,-4.2974,-4.3062,-4.3065,-4.3044,-4.3133,-4.3136,-4.3216,-4.3108,-4.311,-4.3111,0,-4.2277,-4.2344,-4.246,-4.2539,-4.2568,-4.2624,-4.27,-4.2759,-4.2827,-4.2851,-4.2903,-4.2924,-4.3001,-4.2976,-4.3082,-4.3041,-4.308,-4.3107,-4.3111,-4.3121,-4.3092,-4.3146,-4.3242,-4.3254,-4.313,-4.3129,-4.3127,0,-4.2311,-4.243,-4.2516,-4.2551,-4.2644,-4.2683,-4.2724,-4.279,-4.2835,-4.2902,-4.2932,-4.3006,-4.3046,-4.3103,-4.3143,-4.3121,-4.3247,-4.3224,-4.3269,-4.3268,-4.3294,-4.3292,-4.3398,-4.3318,-4.3318,-4.3318,-4.3317,0,-4.2393,-4.2464,-4.2533,-4.2586,-4.2666,-4.2709,-4.2787,-4.2829,-4.2888,-4.2949,-4.2973,-4.303,-4.308,-4.3144,-4.3176,-4.3259,-4.3277,-4.3299,-4.3307,-4.3297,-4.3294,-4.3323,-4.3319,-4.3321,-4.332,-4.332,-4.3319,0,-4.2445,-4.2494,-4.2589,-4.2671,-4.2693,-4.2749,-4.2818,-4.287,-4.291,-4.2987,-4.3008,-4.3069,-4.3145,-4.3192,-4.3287,-4.3309,-4.3402,-4.3407,-4.3379,-4.3383,-4.3425,-4.3421,-4.3554,-4.3574,-4.348,-4.3481,-4.3481,0,-4.2495,-4.255,-4.2638,-4.2682,-4.2723,-4.2792,-4.284,-4.2885,-4.2933,-4.3016,-4.3058,-4.3136,-4.3201,-4.3322,-4.3375,-4.3449,-4.3456,-4.3498,-4.3467,-4.3457,-4.3458,-4.3454,-4.3461,-4.3503,-4.3504,-4.3504,-4.3505,0,-4.2578,-4.26,-4.2668,-4.2745,-4.2801,-4.2864,-4.2926,-4.296,-4.3016,-4.3069,-4.3148,-4.3199,-4.3298,-4.3376,-4.3455,-4.3496,-4.351,-4.3514,-4.3529,-4.352,-4.3502,-4.3513,-4.3394,-4.3511,-4.351,-4.351,-4.351,-4.3509,-4.2631,-4.2682,-4.2752,-4.2828,-4.288,-4.2938,-4.2992,-4.3039,-4.3106,-4.3191,-4.3214,-4.3297,-4.3365,-4.3473,-4.3516,-4.3581,-4.3575,-4.3595,-4.3601,-4.3605,-4.3607,-4.3491,-4.3596,-4.3596,-4.3596,-4.3595,-4.3595,0,-4.2716,-4.2763,-4.2832,-4.2919,-4.2979,-4.2989,-4.3059,-4.3108,-4.3181,-4.3244,-4.3308,-4.34,-4.3476,-4.3535,-4.3613,-4.3654,-4.3663,-4.3673,-4.3671,-4.368,-4.3608,-4.3588,-4.3665,-4.3665,-4.3665,-4.3665,-4.3665,-4.3665,-4.2767,-4.2855,-4.2885,-4.2999,-4.3046,-4.3129,-4.3168,-4.3222,-4.3273,-4.3375,-4.3439,-4.3477,-4.3539,-4.3622,-4.3692,-4.3708,-4.3735,-4.3745,-4.3761,-4.3693,-4.3685,-4.3678,-4.3659,-4.375,-4.375,-4.3829,-4.3829,-4.383]}]]